Location: Beadle
(51.4667°N, 109.0000°W)
Time: 05:34:26
(UTC+00:00)

Envisat - Pass Details

Date: 19 January 2022
Orbit: 764 x 765 km, 98.2° (Epoch: 25 May)

Event Time Altitude Azimuth Distance (km) Brightness Sun altitude
Rises 11:56:36 0° 17° (NNE) 3,244 6.5 -29.7°
Reaches altitude 10° 11:58:58 10° 22° (NNE) 2,313 5.7 -29.3°
Maximum altitude 12:03:58 54° 100° (E) 931 3.6 -28.5°
Drops below altitude 10° 12:08:55 10° 178° (S) 2,297 5.5 -27.8°
Sets 12:11:16 0° 182° (S) 3,219 6.2 -27.4°
